World > North America > United States > Oregon > Silver Lake

Hourly Silver Lake, OR Regional Weather

Feedback E-mail the Weather

Quick WX

Silver Lake, OR Weather Maps

°F °C°F °C
Silver Lake Weather Map
UTC Time: 8/8/2022, 08:09
Your Time:

Silver Lake, OR Regional Weather

Expires:202208080800;;660887
ASUS46 KPQR 080710
RWROR 

OREGON REGIONAL WEATHER ROUNDUP
NATIONAL WEATHER SERVICE PORTLAND OR
1200 AM PDT MON AUG 08 2022

NOTE: "FAIR" INDICATES FEW OR NO CLOUDS BELOW 12,000 FEET WITH
NO SIGNIFICANT WEATHER AND/OR OBSTRUCTIONS TO VISIBILITY.


ORZ029>031-041-044-049-050-061>064-502-503-505>511-080800-
EASTERN OREGON

  
CITY           SKY/WX    TMP DP  RH WIND       PRES   REMARKS
MADRAS         CLEAR     70  34  26 CALM      30.06S                  
REDMOND        CLEAR     76  35  22 NW6       30.07S                  
BEND           CLEAR     75  32  20 NW12      30.11S                  
PRINEVILLE     CLOUDY    70  30  23 NW5       30.08S                  
KLAMATH FALLS  PTCLDY    63  41  44 CALM      30.12R                  
LAKEVIEW       CLEAR     63  46  54 E6        30.18R                  
HERMISTON      CLEAR     62  48  60 SE6       29.93R                  
PENDLETON      CLEAR     70  38  31 SE12      29.98S                  
JOHN DAY       CLEAR     71  34  26 E8        30.11S                  
MEACHAM        CLEAR     53  41  63 CALM      30.13S                  
LA GRANDE      CLEAR     57  44  62 CALM      30.07S                  
BAKER CITY     CLEAR     58  43  57 S3        30.11S                  
BURNS          CLEAR     72  34  24 NE5       30.14R                  
ROME             N/A     81  35  19 VRB6G22   30.11R                  
ONTARIO        CLEAR     66  50  56 CALM      30.04R                  
$$


OTHER REGIONAL REPORTS
  
CITY           SKY/WX    TMP DP  RH WIND       PRES   REMARKS
SEATTLE        CLEAR     71  54  54 N7        29.98R                  
SPOKANE        CLEAR     73  37  27 CALM      30.02F                  
VANCOUVER BC   CLEAR     66  66 100 NW5       29.95R                  
PRINCE GEORGE  CLEAR     63  46  55 S8        30.01R                  
DAWSON CREEK   CLEAR     64  41  42 W12G17    29.85R                  
WHITEHORSE     MOCLDY    52  39  62 E5        29.98S                  
BOISE          CLEAR     74  34  23 SE10      30.06R                  
REDDING        CLEAR     84  55  36 S7        29.91R                  
SAN FRANCISCO  MOCLDY    64  58  80 W15       30.03R                  

$$

  

SKY/WX - Weather  TMP - Temperature  DP - Dew Point  RH - Humidity
WIND - Wind Direction/Speed PRES - Barometric Pressure VSB - Visibility
WCI - Wind Chill Index E13G22 Wind - East Wind 13 mph/Gusts of 22 mph

Trending Headlines

Silver Lake Radar Loop



Silver Lake Quick Facts


National Two Day Weather Forecast


E-mail the Silver Lake Weather Forecast

Voice your opinion or tell us about page issues...